Tracking 22458 objects as of 2-Mar-2021
HD Live streaming from Space Station
objects crossing your sky now

CZ-4 DEB

Track CZ-4 DEB now!
10-day predictions


NORAD ID: 20847
Int'l Code: 1990-081K
Perigee: 606.8 km
Apogee: 630.6 km
Inclination: 98.6 °
Period: 96.9 minutes
Semi major axis: 6989 km
RCS: 1.3457 m2 (large)
Launch date: September 3, 1990
Source: People's Republic of China (PRC)
Launch site: Taiyaun Space Center, China (TSC)

Note: This is SATELLITE DEBRIS
aabbcc
Your satellite tracking list
Your tracking list is empty




NASA's NSSDC Master Catalog

Two Line Element Set (TLE):
1 20847U 90081K   21060.89707238  .00002636  00000-0  31083-3 0  9997
2 20847  98.5740  56.3142 0017063  49.3142 310.9551 14.85638649606232
Source of the keplerian elements: AFSPC